Regional Weather Roundup
Issued by NWS Upton, NY

Home | Current Version | Previous Version | Text Only | Print | Product List | Glossary On
Versions: 1 2 3 4 5 6 7 8 9 10 11 12 13 14 15 16 17 18 19 20 21 22 23 24 25 26 27 28 29 30 31 32 33 34 35 36 37 38 39 40 41 42 43 44 45 46 47 48 49 50
000
ASUS41 KOKX 242309
RWROKX

REGIONAL WEATHER ROUNDUP
NATIONAL WEATHER SERVICE NEW YORK NY
700 PM EDT SUN SEP 24 2017

NOTE: "FAIR" INDICATES FEW OR NO CLOUDS BELOW 12,000 FEET WITH NO
SIGNIFICANT WEATHER AND/OR OBSTRUCTIONS TO VISIBILITY.

NYZ071-072-176-178-NJZ106-104-250000-
NEW YORK CITY METRO AREA

CITY           SKY/WX    TMP DP  RH WIND       PRES   REMARKS
Central Park   CLEAR     81  64  56 CALM      30.05R
Bronx Bot Gard   N/A     79  63  57 SE2       30.03R
LaGuardia APRT PTCLDY    83  63  50 S9        30.01S
Kennedy INTL   PTCLDY    75  63  66 SE3       30.03S
Breezy Point   NOT AVBL
Newark/Liberty PTCLDY    84  64  50 SE5       30.01S
Teterboro      CLEAR     82  65  56 SW10      30.00S
$$

NYZ177-179-078>081-250000-
LONG ISLAND NEW YORK

CITY           SKY/WX    TMP DP  RH WIND       PRES   REMARKS
Jones Beach      N/A     72 N/A N/A S2          N/A
Matinecock PT    N/A     81 N/A N/A SW5         N/A
Farmingdale    CLEAR     75  60  59 S6        30.03S
MacArthur/ISP  PTCLDY    75  62  64 CALM      30.02S
Shirley        CLEAR     75  62  64 S5        30.03S
Mt Sinai Harb    N/A    N/A N/A N/A S1          N/A
Westhampton    CLEAR     69  60  73 SE3       30.04S
East Hampton   FAIR      69  60  71 CALM      30.03R
Montauk          N/A     71  63  75 CALM      30.05R
$$

NYZ052-065-067-250000-
HUDSON VALLEY

CITY           SKY/WX    TMP DP  RH WIND       PRES   REMARKS
White Plains   CLEAR     78  66  66 CALM      30.03S
Larchmont Harb   N/A     75 N/A N/A NE1         N/A
Croton On Huds   N/A     86 N/A N/A MISG        N/A
Newburgh       CLEAR     88  68  51 VRB6      30.04F HX  91
Montgomery     CLEAR     76  69  79 CALM      30.03R
Poughkeepsie   CLEAR     77  67  71 CALM      30.01R
Albany         CLEAR     80  68  66 CALM      30.03S
$$

NJZ001-105-106-008-010-013-015-019>022-104-250000-
NEW JERSEY

CITY           SKY/WX    TMP DP  RH WIND       PRES   REMARKS
Newark/Liberty PTCLDY    84  64  50 SE5       30.01S
Teterboro      CLEAR     82  65  56 SW10      30.00S
Caldwell       LGT RAIN  83  67  58 CALM      30.02S
Somerville     NOT AVBL
Linden           N/A     83  64  53 CALM      30.02
Perth Amboy      N/A     79 N/A N/A E5          N/A
Sussex         CLEAR     77  70  79 CALM      30.05R
Andover          N/A     75  68  78 CALM      30.05R
Trenton        CLEAR     87  65  47 CALM      30.02R
Millville      CLEAR     78  67  68 CALM      30.03S
Atlantic City  CLEAR     74  66  76 SE6       30.04R
Wrightstown    CLEAR     78  68  69 SE5       30.00R
Toms River     CLEAR     76  68  76 CALM      30.04R
Belmar         CLEAR     76  64  66 S5        30.04S
$$

PAZ047>061-062-071-250000-
EASTERN PENNSYLVANIA

CITY           SKY/WX    TMP DP  RH WIND       PRES   REMARKS
Philadelphia   PTCLDY    84  65  52 SE3       30.02R
Allentown      CLEAR     86  63  45 CALM      30.04R
Scranton       CLEAR     82  66  58 CALM      30.07S
$$

CTZ002-004>006-009-010-012-RIZ004-006-007-MAZ004-011-015-250000-
SOUTHERN NEW ENGLAND
 IN CT

CITY           SKY/WX    TMP DP  RH WIND       PRES   REMARKS
Bradley INTL   PTCLDY    81  69  67 CALM      30.01S
Hartford       CLEAR     79  69  71 CALM      30.00S
Danbury        CLEAR     78  68  71 CALM      30.05R
Wtrbury/Oxford CLEAR     78  67  68 SE3       30.06R
Norwalk Harbor   N/A     79 N/A N/A E3          N/A
Bridgeport     LGT RAIN  78  63  59 CALM      30.02R
Meriden        CLEAR     77  64  64 CALM      30.02R
New Haven      CLEAR     76  63  64 CALM      30.02S
Chester        FAIR      75  64  69 CALM      30.04S
Groton         CLEAR     71  62  73 CALM      30.02S
Wilimantic     CLEAR     81  68  64 S3        30.02R

 IN RI

CITY           SKY/WX    TMP DP  RH WIND       PRES   REMARKS
Providence     CLEAR     74  61  63 S7        30.03R
Block Island   CLEAR     71  62  73 SW5       30.04R
Westerly       CLEAR     73  61  65 CALM      30.03S
 IN MA

CITY           SKY/WX    TMP DP  RH WIND       PRES   REMARKS
Boston         CLEAR     71  63  75 NE5       30.02R
Worcester      CLEAR     78  66  66 CALM      30.06R
Westfield      CLEAR     79  69  71 CALM      30.01S
Provincetown   CLEAR     67  65  93 E3        30.03
Nantucket      FOG       63  63 100 N6        30.03S VSB 1/2
$$

ANZ330-335-338-340-345-350-353-355-250000-
COASTAL MARINE OBSERVATIONS


STATION/POSITION TIME  SKY/WX   TEMP    WIND        PRES    VSBY  WAVE
                                AIR SEA DIR/SP/G                  HT/PER
                 (UTC)          (F)     (DEG/KT/KT) (MB)    (MI)  (FT/S)
NY HARB ENTRANCE 2250            73 73  170/  6/  8 1015.9          3/11
20 S FIRE ISLAND 2150            71 69  120/  4/  6 1016.8          4/13
GREAT SOUTH BAY  2230            73 73     CALM       N/A
23 SSW MONTAUK P 2150            71 67              1017.1          5/14
15 E BARNEGAT LI 2230               71                N/A           3/12
HUDSON CANYON    2250            68 69   50/  6/  8 1016.3          5/13
KINGS POINT      2224            79 72  200/  9/ 10 1017.1
EXECUTION ROCKS  2245            81      CALM  /  2   N/A
WESTERN LI SOUND NOT AVBL
CENTRAL LI SOUND 2230            73      60/  4/  4   N/A           1
EASTERN LI SOUND NOT AVBL
ROBBINS REEF     2224            78     160/ 11/ 12 1017.0
$$


>>>>>>>>>>>>>>>>>>>>>>>>>>>> KEY <<<<<<<<<<<<<<<<<<<<<<<<<<<
>                                                          <
>     SKY/WX - Sky Condition/Present Weather               <
>     TMP    - Temperature in Fahrenheit                   <
>     DP     - Dew Point in Fahrenheit                     <
>     RH     - Relative Humidity in Percent                <
>     WIND   - Direction (from) and Speed in MPH           <
>     PRES   - Mean Sea Level Pressure (inches of Hg)      <
>     WCI    - Wind Chill Index                            <
>     VSB    - VISIBILITY IN MILES                         <
>     HX     - HEAT INDEX                                  <
>     TC     - TEMPERATURE IN CELSIUS                      <
>     VRB    - VARIABLE WIND DIRECTION                     <
>                                                          <
>>>>>>>>>>>>>>>>>>>>>>>>>>>> KEY <<<<<<<<<<<<<<<<<<<<<<<<<<<



USA.gov is the U.S. government's official web portal to all federal, state and local government web resources and services.